Location: Ca�n Batista
(41.4099°N, 1.7752°E)
Time: 14:34:15
(UTC+00:00)

Lacrosse 4 Rocket - Pass Details

Date: 03 March 2021
Orbit: 537 x 620 km, 68.0° (Epoch: 21 April)

Event Time Altitude Azimuth Distance (km) Brightness Sun altitude
Rises 19:08:09 0° 184° (S) 2,801 4.9 -16.2°
Reaches altitude 10° 19:10:30 10° 174° (S) 1,919 4.0 -16.6°
Enters shadow 19:14:14 33° 115° (ESE) 1,011 2.1 -17.3°
